EW8655 Weather Reports


Display with metric or nautical units.
time (UTC)temp
F
wind
direction
speed
MPH
gust
MPH
rain 1hr
in
rain 24hr
in
rain mn
in
humidity
%
barometer
mb
20260509224007 57 87 2.0 5.0 0.00 0.00 0.00 67 1001.1
20260509223507 58 60 2.0 5.0 0.00 0.00 0.00 65 1001.1
20260509223008 61 21 2.0 7.0 0.00 0.00 0.00 64 1001.1
20260509222506 61 351 2.0 7.0 0.00 0.00 0.00 62 1001.1
20260509222007 61 288 3.0 14.0 0.00 0.00 0.00 61 1001.1
20260509221506 64 334 5.0 14.0 0.00 0.00 0.00 57 1001.1
20260509221007 67 229 9.0 14.0 0.00 0.00 0.00 57 1001.1
20260509220507 67 225 12.0 14.0 0.00 0.00 0.00 56 1000.6
20260509220007 67 215 12.0 14.0 0.00 0.00 0.00 57 1000.1
20260509215506 67 197 12.0 20.0 0.00 0.00 0.00 57 1000.1
20260509215008 67 223 14.0 20.0 0.00 0.00 0.00 57 1000.1
20260509214507 67 196 14.0 20.0 0.00 0.00 0.00 58 1000.1
20260509214007 67 197 14.0 16.0 0.00 0.00 0.00 58 1000.1
20260509213008 67 209 12.0 22.0 0.00 0.00 0.00 59 1000.1
20260509212506 68 199 12.0 18.0 0.00 0.00 0.00 59 1000.1
20260509212007 68 212 14.0 18.0 0.00 0.00 0.00 59 1000.1
20260509210507 67 207 14.0 22.0 0.00 0.00 0.00 60 1000.1
20260509205506 68 206 12.0 18.0 0.00 0.00 0.00 60 1000.1
20260509205007 68 207 10.0 18.0 0.00 0.00 0.00 61 1000.1
20260509204506 67 204 12.0 20.0 0.00 0.00 0.00 61 1000.1
20260509204007 67 183 14.0 20.0 0.00 0.00 0.00 61 1000.1
20260509203507 67 206 12.0 18.0 0.00 0.00 0.00 62 1000.1
20260509203007 67 199 14.0 18.0 0.00 0.00 0.00 63 1000.2
20260509202506 67 196 12.0 18.0 0.00 0.00 0.00 64 1001.1
20260509202008 67 197 14.0 18.0 0.00 0.00 0.00 66 1001.1
20260509201506 67 187 12.0 18.0 0.00 0.00 0.00 68 1001.1
20260509201008 66 169 9.0 14.0 0.00 0.00 0.00 73 1001.1
20260509200506 62 221 3.0 12.0 0.00 0.00 0.00 81 1001.1
20260509200006 57 63 2.0 9.0 0.00 0.00 0.00 83 1002.1
20260509195506 55 81 5.0 9.0 0.00 0.00 0.00 83 1002.1
20260509195006 54 55 5.0 7.0 0.00 0.00 0.00 83 1002.1
20260509194506 55 55 5.0 9.0 0.00 0.00 0.00 83 1002.1
20260509193506 53 77 7.0 12.0 0.00 0.00 0.00 85 1002.1
20260509193007 53 69 7.0 12.0 0.00 0.00 0.00 85 1002.1
20260509192507 53 62 7.0 9.0 0.00 0.00 0.00 85 1002.1
20260509192008 53 69 7.0 12.0 0.00 0.00 0.00 85 1002.1
20260509191506 53 76 9.0 12.0 0.00 0.00 0.00 85 1002.1
20260509191008 53 83 9.0 14.0 0.00 0.00 0.00 86 1002.1
20260509190506 52 83 11.0 14.0 0.00 0.00 0.00 86 1002.1
20260509190006 52 63 9.0 12.0 0.00 0.00 0.00 86 1002.1
20260509185007 52 67 9.0 14.0 0.00 0.00 0.00 85 1002.1
20260509184506 52 70 12.0 12.0 0.00 0.00 0.00 85 1002.1
20260509184007 52 70 9.0 12.0 0.00 0.00 0.00 85 1003.1
20260509183507 52 81 9.0 12.0 0.00 0.00 0.00 85 1003.1
20260509183007 52 77 9.0 12.0 0.00 0.00 0.00 86 1003.1
20260509182506 52 69 9.0 12.0 0.00 0.00 0.00 85 1003.1
20260509182007 52 74 8.0 14.0 0.00 0.00 0.00 85 1003.1
20260509181506 52 76 10.0 14.0 0.00 0.00 0.00 84 1003.1
20260509181007 52 76 12.0 14.0 0.00 0.00 0.00 84 1003.1
20260509180507 52 75 9.0 12.0 0.00 0.00 0.00 85 1003.6
20260509180006 52 72 7.0 12.0 0.00 0.00 0.00 85 1004.1
20260509175506 52 69 8.0 12.0 0.00 0.00 0.00 85 1004.1
20260509175007 52 65 9.0 12.0 0.00 0.00 0.00 85 1004.1
20260509174506 52 88 9.0 12.0 0.00 0.00 0.00 85 1004.1
20260509174007 52 69 9.0 12.0 0.00 0.00 0.00 85 1004.1
20260509173506 52 72 9.0 12.0 0.00 0.00 0.00 85 1004.1
20260509173007 52 65 7.0 12.0 0.00 0.00 0.00 85 1004.1
20260509172007 52 73 7.0 12.0 0.00 0.00 0.00 85 1004.1
20260509171505 52 91 7.0 9.0 0.00 0.00 0.00 85 1004.1
20260509171007 52 81 9.0 12.0 0.00 0.00 0.00 85 1004.1
20260509170506 52 67 9.0 12.0 0.00 0.00 0.00 85 1004.1
20260509170006 52 94 9.0 12.0 0.00 0.00 0.00 85 1004.1
20260509165506 52 70 9.0 12.0 0.00 0.00 0.00 85 1004.1
20260509165007 52 71 9.0 12.0 0.00 0.00 0.00 84 1004.1
20260509164506 52 88 9.0 12.0 0.00 0.00 0.00 84 1004.1
20260509164007 52 70 9.0 12.0 0.00 0.00 0.00 84 1004.1
20260509163506 52 71 9.0 12.0 0.00 0.00 0.00 84 1004.1
20260509163007 52 70 6.0 12.0 0.00 0.00 0.00 83 1004.1
20260509162507 53 63 5.0 7.0 0.00 0.00 0.00 84 1005.1
20260509162007 52 62 6.0 7.0 0.00 0.00 0.00 84 1005.1
20260509161506 52 60 7.0 12.0 0.00 0.00 0.00 84 1005.1
20260509161007 52 65 9.0 12.0 0.00 0.00 0.00 84 1005.1
20260509160506 52 70 9.0 12.0 0.00 0.00 0.00 84 1005.1
20260509160006 52 70 7.0 9.0 0.00 0.00 0.00 84 1005.1
20260509155506 52 61 7.0 9.0 0.00 0.00 0.00 83 1005.1
20260509154505 52 64 9.0 12.0 0.00 0.00 0.00 83 1005.1
20260509154006 52 70 8.0 12.0 0.00 0.00 0.00 83 1005.1
20260509153006 52 75 7.0 9.0 0.00 0.00 0.00 83 1005.1
20260509152006 52 65 5.0 9.0 0.00 0.00 0.00 82 1005.1
20260509151506 52 98 5.0 9.0 0.00 0.00 0.00 82 1005.1
20260509151007 52 73 7.0 9.0 0.00 0.00 0.00 81 1005.1
20260509150006 52 70 7.0 12.0 0.00 0.00 0.00 81 1005.1
20260509145505 52 78 7.0 12.0 0.00 0.00 0.00 80 1005.1
20260509145006 52 77 6.0 9.0 0.00 0.00 0.00 80 1005.1
20260509144505 52 67 5.0 9.0 0.00 0.00 0.00 79 1005.2
20260509144007 52 77 5.0 9.0 0.00 0.00 0.00 79 1005.1
20260509143007 53 71 7.0 9.0 0.00 0.00 0.00 77 1005.1
20260509142506 54 69 4.0 9.0 0.00 0.00 0.00 75 1005.1
20260509142007 57 119 2.0 5.0 0.00 0.00 0.00 75 1006.1
20260509141506 57 97 2.0 7.0 0.00 0.00 0.00 74 1005.4
20260509141006 58 187 5.0 7.0 0.00 0.00 0.00 74 1006.1
20260509140507 58 162 5.0 7.0 0.00 0.00 0.00 76 1006.1
20260509140006 57 179 2.0 5.0 0.00 0.00 0.00 76 1006.1
20260509135506 55 107 2.0 7.0 0.00 0.00 0.00 75 1006.1
20260509135006 57 105 2.0 7.0 0.00 0.00 0.00 75 1006.1
20260509134505 57 204 5.0 9.0 0.00 0.00 0.00 76 1006.1
20260509134007 56 165 5.0 9.0 0.00 0.00 0.00 76 1006.1
20260509133506 55 171 7.0 9.0 0.00 0.00 0.00 77 1006.1
20260509133006 55 172 2.0 9.0 0.00 0.00 0.00 78 1006.1
20260509132505 54 140 1.0 5.0 0.00 0.00 0.00 78 1006.1
20260509132006 52 119 2.0 5.0 0.00 0.00 0.00 78 1006.1
20260509131506 52 125 5.0 5.0 0.00 0.00 0.00 78 1006.1
20260509131006 51 107 2.0 5.0 0.00 0.00 0.00 78 1006.1
20260509130506 51 117 2.0 5.0 0.00 0.00 0.00 77 1006.1
20260509130005 52 98 2.0 5.0 0.00 0.00 0.00 77 1006.1
20260509125006 51 107 5.0 5.0 0.00 0.00 0.00 76 1006.6
20260509124506 51 94 5.0 5.0 0.00 0.00 0.00 76 1007.1
20260509124006 51 90 5.0 5.0 0.00 0.00 0.00 74 1007.1
20260509123506 52 94 0.0 5.0 0.00 0.00 0.00 73 1007.1
20260509123006 52 140 2.0 5.0 0.00 0.00 0.00 73 1007.1
20260509122505 52 170 0.0 2.0 0.00 0.00 0.00 73 1007.1
20260509122007 52 155 0.0 5.0 0.00 0.00 0.00 73 1007.1
20260509121506 52 148 2.0 5.0 0.00 0.00 0.00 73 1007.1
20260509120506 51 142 2.0 5.0 0.00 0.00 0.00 73 1007.1
20260509120005 50 139 0.0 5.0 0.00 0.00 0.00 73 1007.1
20260509115505 50 139 0.0 2.0 0.00 0.00 0.00 73 1007.1
20260509115006 50 139 0.0 2.0 0.00 0.00 0.00 73 1007.1
20260509114505 50 136 0.0 2.0 0.00 0.00 0.00 73 1007.1
20260509114007 49 152 0.0 5.0 0.00 0.00 0.00 72 1007.1
20260509113006 49 168 5.0 5.0 0.00 0.00 0.00 72 1007.3
20260509112506 49 175 2.0 5.0 0.00 0.00 0.00 72 1007.6
20260509112006 49 174 0.0 5.0 0.00 0.00 0.00 72 1007.1
20260509111505 48 162 1.0 5.0 0.00 0.00 0.00 72 1007.6
20260509110506 48 178 5.0 5.0 0.00 0.00 0.00 72 1007.6
20260509110005 48 181 5.0 5.0 0.00 0.00 0.00 72 1007.1
20260509105505 48 188 5.0 5.0 0.00 0.00 0.00 72 1007.1
20260509105008 48 182 5.0 5.0 0.00 0.00 0.00 72 1007.1
20260509104507 47 189 5.0 7.0 0.00 0.00 0.00 72 1007.1
20260509104009 47 184 5.0 7.0 0.00 0.00 0.00 72 1007.1
20260509103009 47 182 5.0 5.0 0.00 0.00 0.00 72 1007.1
20260509102507 47 175 5.0 5.0 0.00 0.00 0.00 72 1007.1
20260509102009 47 169 5.0 5.0 0.00 0.00 0.00 71 1007.1
20260509101507 47 162 5.0 5.0 0.00 0.00 0.00 71 1007.1
20260509101008 47 165 5.0 5.0 0.00 0.00 0.00 71 1007.1
20260509100507 47 169 3.0 5.0 0.00 0.00 0.00 71 1007.1
20260509100007 46 166 2.0 5.0 0.00 0.00 0.00 71 1007.1
20260509095008 46 162 5.0 5.0 0.00 0.00 0.00 71 1007.6
20260509094507 46 174 5.0 5.0 0.00 0.00 0.00 71 1007.1
20260509094009 46 189 5.0 7.0 0.00 0.00 0.00 71 1007.5
20260509093508 46 172 5.0 7.0 0.00 0.00 0.00 71 1007.1
20260509093009 46 172 5.0 5.0 0.00 0.00 0.00 71 1007.6
20260509092508 46 171 5.0 7.0 0.00 0.00 0.00 71 1007.2
20260509092009 46 168 5.0 7.0 0.00 0.00 0.00 71 1007.1
20260509090508 46 176 3.0 5.0 0.00 0.00 0.00 71 1008.1
20260509090007 46 157 5.0 5.0 0.00 0.00 0.00 71 1008.1
20260509085507 46 156 5.0 5.0 0.00 0.00 0.00 71 1008.1
20260509084507 46 171 4.0 5.0 0.00 0.00 0.00 71 1008.1
20260509083008 46 158 5.0 5.0 0.00 0.00 0.00 70 1008.1
20260509082508 46 163 5.0 5.0 0.00 0.00 0.00 70 1008.1
20260509081507 46 162 5.0 5.0 0.00 0.00 0.00 70 1008.1
20260509080507 46 159 5.0 5.0 0.00 0.00 0.00 69 1008.1
20260509080007 46 162 2.0 5.0 0.00 0.00 0.00 69 1008.1
20260509075507 46 157 3.0 5.0 0.00 0.00 0.00 69 1008.1
20260509075008 46 160 5.0 5.0 0.00 0.00 0.00 69 1008.1
20260509074507 46 153 2.0 5.0 0.00 0.00 0.00 69 1008.1
20260509074008 47 158 2.0 5.0 0.00 0.00 0.00 69 1008.1
20260509073507 47 148 2.0 5.0 0.00 0.00 0.00 69 1008.1
20260509073008 47 147 5.0 7.0 0.00 0.00 0.00 69 1008.1
20260509072009 47 172 5.0 7.0 0.00 0.00 0.00 69 1008.1
20260509071009 47 169 5.0 7.0 0.00 0.00 0.00 69 1008.1
20260509070006 47 184 7.0 7.0 0.00 0.00 0.00 69 1008.1
20260509065507 47 172 5.0 7.0 0.00 0.00 0.00 69 1008.1
20260509065008 47 177 5.0 7.0 0.00 0.00 0.00 69 1008.1
20260509064507 47 173 5.0 7.0 0.00 0.00 0.00 68 1008.1
20260509064008 47 182 5.0 7.0 0.00 0.00 0.00 68 1008.1
20260509063508 47 181 5.0 7.0 0.00 0.00 0.00 68 1008.1
20260509063008 47 179 5.0 7.0 0.00 0.00 0.00 68 1008.1
20260509062506 48 184 5.0 7.0 0.00 0.00 0.00 68 1008.1
20260509062008 48 180 5.0 7.0 0.00 0.00 0.00 68 1008.1
20260509061507 48 174 5.0 9.0 0.00 0.00 0.00 68 1008.1
20260509061008 48 174 7.0 9.0 0.00 0.00 0.00 68 1008.1
20260509060507 48 177 7.0 9.0 0.00 0.00 0.00 68 1009.0
20260509060006 48 183 7.0 9.0 0.00 0.00 0.00 68 1009.1
20260509055507 48 177 7.0 9.0 0.00 0.00 0.00 68 1008.6
20260509054507 48 177 5.0 7.0 0.00 0.00 0.00 69 1009.1
20260509054008 48 174 5.0 7.0 0.00 0.00 0.00 69 1009.1
20260509053508 48 181 5.0 7.0 0.00 0.00 0.00 69 1009.1
20260509053008 48 181 5.0 7.0 0.00 0.00 0.00 68 1009.1
20260509052507 49 188 5.0 7.0 0.00 0.00 0.00 69 1009.1
20260509052008 49 188 5.0 7.0 0.00 0.00 0.00 69 1009.1
20260509051008 49 191 5.0 7.0 0.00 0.00 0.00 69 1009.1
20260509050507 49 193 5.0 7.0 0.00 0.00 0.00 69 1009.1
20260509045008 48 177 2.0 5.0 0.00 0.00 0.00 70 1009.1
20260509044507 48 180 5.0 5.0 0.00 0.00 0.00 70 1009.1
20260509043507 49 178 5.0 7.0 0.00 0.00 0.00 70 1009.1
20260509042506 49 161 5.0 5.0 0.00 0.00 0.00 71 1009.1
20260509042007 49 162 3.0 5.0 0.00 0.00 0.00 71 1009.1
20260509041507 49 160 2.0 7.0 0.00 0.00 0.00 71 1009.6
20260509040007 49 161 5.0 5.0 0.00 0.00 0.00 70 1010.1
20260509035008 49 165 5.0 5.0 0.00 0.00 0.00 71 1010.1
20260509034507 49 156 2.0 5.0 0.00 0.00 0.00 71 1010.1
20260509033508 49 162 5.0 5.0 0.00 0.00 0.00 71 1010.1
20260509033008 49 158 5.0 5.0 0.00 0.00 0.00 71 1010.1
20260509032506 49 161 4.0 5.0 0.00 0.00 0.00 71 1010.1
20260509032008 49 151 5.0 5.0 0.00 0.00 0.00 71 1010.1
20260509031507 49 160 5.0 5.0 0.00 0.00 0.00 71 1010.1
20260509030507 49 161 5.0 5.0 0.00 0.00 0.00 71 1010.1
20260509030006 48 161 2.0 5.0 0.00 0.00 0.00 71 1010.1
20260509025507 48 158 2.0 5.0 0.00 0.00 0.00 71 1010.1
20260509024506 49 144 2.0 5.0 0.00 0.00 0.00 70 1010.1
20260509024008 49 147 2.0 5.0 0.00 0.00 0.00 69 1010.1
20260509023507 49 139 2.0 5.0 0.00 0.00 0.00 69 1010.1
20260509022506 49 140 2.0 5.0 0.00 0.00 0.00 69 1010.1
20260509022007 49 139 2.0 5.0 0.00 0.00 0.00 69 1010.1
20260509021507 49 138 0.0 2.0 0.00 0.00 0.00 69 1010.1
20260509020508 48 123 0.0 0.0 0.00 0.00 0.00 69 1010.1
20260509015008 49 130 0.0 2.0 0.00 0.00 0.00 70 1010.1
20260509014506 49 135 0.0 2.0 0.00 0.00 0.00 70 1010.1
20260509014008 49 117 0.0 2.0 0.00 0.00 0.00 71 1010.1
20260509013507 49 127 0.0 5.0 0.00 0.00 0.00 71 1010.1
20260509013008 49 129 1.0 5.0 0.00 0.00 0.00 73 1010.1
20260509012506 49 137 2.0 5.0 0.00 0.00 0.00 74 1010.1
20260509012007 48 130 0.0 2.0 0.00 0.00 0.00 75 1010.1
20260509011507 48 134 0.0 5.0 0.00 0.00 0.00 76 1010.1
20260509011008 48 137 2.0 5.0 0.00 0.00 0.00 76 1010.1
20260509010507 48 112 2.0 5.0 0.00 0.00 0.00 76 1009.1
20260509010007 49 109 2.0 5.0 0.00 0.00 0.00 75 1009.1
20260509005506 49 114 2.0 5.0 0.00 0.00 0.00 74 1009.1
20260509005007 49 117 0.0 2.0 0.00 0.00 0.00 74 1009.1
20260509004507 49 126 0.0 2.0 0.00 0.00 0.00 74 1009.1
20260509004007 49 119 0.0 2.0 0.00 0.00 0.00 74 1009.1
20260509003507 49 122 0.0 2.0 0.00 0.00 0.00 74 1009.1
20260509003008 49 137 0.0 2.0 0.00 0.00 0.00 74 1009.1
20260509002506 49 128 0.0 2.0 0.00 0.00 0.00 75 1009.1
20260509002007 49 133 0.0 5.0 0.00 0.00 0.00 76 1009.1
20260509001506 49 120 2.0 5.0 0.00 0.00 0.00 77 1009.1
20260509001008 49 121 2.0 5.0 0.00 0.00 0.00 77 1009.1
20260509000507 49 114 2.0 5.0 0.00 0.00 0.00 78 1009.1
20260509000006 49 125 2.0 5.0 0.00 0.00 0.00 78 1009.1
20260508235506 50 115 2.0 5.0 0.00 0.00 0.00 77 1009.1
20260508235007 50 120 2.0 5.0 0.00 0.00 0.00 77 1009.1
20260508234507 50 109 2.0 5.0 0.00 0.00 0.00 76 1009.1
20260508233507 49 112 0.0 2.0 0.00 0.00 0.00 76 1009.1
20260508233007 49 110 2.0 2.0 0.00 0.00 0.00 76 1009.1
20260508232507 49 118 2.0 5.0 0.00 0.00 0.00 76 1009.1
20260508232007 49 115 2.0 5.0 0.00 0.00 0.00 76 1009.1
20260508231507 49 114 2.0 5.0 0.00 0.00 0.00 76 1009.1
20260508231008 50 115 2.0 5.0 0.00 0.00 0.00 77 1009.1
20260508230006 50 121 2.0 7.0 0.00 0.00 0.00 77 1008.9
20260508225507 50 97 2.0 7.0 0.00 0.00 0.00 77 1009.1
20260508225008 50 117 2.0 7.0 0.00 0.00 0.00 77 1009.1